Location: Asheville, NC
(35.6000°N, 82.5500°W)
Time: 21:52:50
(UTC-04:00)

Vanguard 3 - All Passes

Search period start: 25 April 2018 00:00
Search period end: 05 May 2018 00:00
Orbit: 508 x 3264 km, 33.3° (Epoch: 24 April)

Date Brightness Start Highest point End Pass type
(mag) Time Alt. Az. Time Alt. Az. Time Alt. Az.
25 Apr - 00:46:09 10° W 00:50:12 60° S 00:56:25 10° ESE night (unlit)
25 Apr - 02:57:06 10° W 03:02:08 32° SSW 03:10:07 10° SE visible
25 Apr - 05:11:31 10° SW 05:15:15 13° SSW 05:19:44 10° S visible
25 Apr - 19:13:27 10° S 19:14:26 11° SSE 19:15:22 10° SE daylight
25 Apr - 21:22:04 10° SW 21:25:43 36° SSE 21:29:10 10° E visible
25 Apr - 23:33:07 10° W 23:36:47 65° S 23:41:34 10° E visible
26 Apr - 01:43:55 10° W 01:48:15 41° SSW 01:55:03 10° SE night (unlit)
26 Apr - 03:56:06 10° WSW 04:00:40 18° SSW 04:06:55 10° SSE visible
26 Apr - 20:08:40 10° SW 20:12:25 23° SSE 20:15:30 10° ESE daylight
26 Apr - 22:19:50 10° WSW 22:23:29 59° S 22:27:23 10° E visible
27 Apr - 00:30:52 10° W 00:34:41 52° S 00:40:09 10° ESE night (unlit)
27 Apr - 02:42:09 10° WSW 02:46:28 24° SSW 02:52:49 10° SSE night (unlit)
27 Apr - 18:55:25 10° SSW 18:58:52 16° SSE 19:01:37 10° ESE daylight
27 Apr - 21:06:11 10° WSW 21:10:14 44° SSE 21:13:44 10° E visible
27 Apr - 23:17:43 10° W 23:21:19 61° S 23:25:41 10° ESE visible
28 Apr - 01:28:47 10° W 01:32:40 32° SSW 01:38:22 10° SE night (unlit)
28 Apr - 03:42:15 10° SW 03:44:58 12° SSW 03:48:12 10° S visible
28 Apr - 17:43:18 10° S 17:44:59 11° SSE 17:46:30 10° SE daylight
28 Apr - 19:52:16 10° SW 19:56:53 31° SSE 20:00:22 10° E daylight
28 Apr - 22:04:14 10° WSW 22:08:03 62° S 22:11:46 10° E visible
29 Apr - 00:15:36 10° W 00:19:10 43° SSW 00:23:58 10° ESE night (unlit)
29 Apr - 02:27:28 10° WSW 02:30:52 18° SSW 02:35:22 10° SSE night (unlit)
29 Apr - 18:38:14 10° SSW 18:43:17 23° SSE 18:46:56 10° ESE daylight
29 Apr - 20:50:16 10° WSW 20:54:46 52° S 20:58:21 10° E visible
29 Apr - 23:02:17 10° W 23:05:52 56° S 23:09:53 10° ESE visible
30 Apr - 01:13:44 10° WSW 01:17:08 24° SSW 01:21:40 10° SE night (unlit)
30 Apr - 17:24:30 10° SSW 17:29:21 17° SSE 17:33:02 10° ESE daylight
30 Apr - 19:35:52 10° SW 19:41:22 39° SSE 19:45:11 10° E daylight
30 Apr - 21:48:33 10° W 21:52:36 64° S 21:56:15 10° E visible
01 May - 00:00:18 10° W 00:03:41 34° SSW 00:07:49 10° SE night (unlit)
01 May - 02:13:29 10° SW 02:15:16 12° SSW 02:17:18 10° S night (unlit)
01 May - 16:12:04 10° S 16:15:02 12° SSE 16:17:37 10° SE daylight
01 May - 18:21:12 10° SW 18:27:42 30° SSE 18:31:59 10° E daylight
01 May - 20:34:15 10° WSW 20:39:17 59° S 20:42:59 10° E visible
01 May - 22:46:45 10° W 22:50:25 50° S 22:54:08 10° ESE visible
02 May - 00:58:51 10° WSW 01:01:34 17° SSW 01:04:53 10° SSE night (unlit)
02 May - 17:06:38 10° SSW 17:13:41 23° SSE 17:18:29 10° ESE daylight
02 May - 19:19:24 10° WSW 19:25:49 49° SSE 19:29:58 10° E daylight
02 May - 21:32:46 10° W 21:37:10 63° S 21:40:46 10° ESE visible
02 May - 23:45:01 10° W 23:48:09 27° SSW 23:51:42 10° SE visible
03 May - 15:52:40 10° S 15:59:16 17° SSE 16:04:10 10° ESE daylight
03 May - 18:04:13 10° SW 18:12:04 39° SSE 18:16:54 10° E daylight
03 May - 20:18:09 10° WSW 20:23:48 65° S 20:27:40 10° E daylight
03 May - 22:31:10 10° W 22:34:56 43° SSW 22:38:28 10° ESE visible
04 May - 00:44:22 10° SW 00:45:59 12° SSW 00:47:44 10° S night (unlit)
04 May - 14:40:41 10° SSE 14:44:25 12° SSE 14:47:40 10° SE daylight
04 May - 16:49:00 10° SW 16:57:57 30° SSE 17:03:35 10° E daylight
04 May - 19:02:54 10° WSW 19:10:14 57° S 19:14:43 10° E daylight
04 May - 21:16:54 10° W 21:21:41 62° S 21:25:20 10° ESE visible
04 May - 23:29:44 10° WSW 23:32:36 21° SSW 23:35:36 10° SSE visible
